| time (UTC) | temp C | wind direction | speed KPH | gust KPH | rain 1hr cm | rain 24hr cm | rain mn cm | humidity % | barometer mb |
| 20260504220024 | 10 | 36 | 14.5 | 24.1 | 0.00 | 0.00 | 0.00 | 43 | 1010.8 |
| 20260504214523 | 10 | 58 | 12.9 | 20.9 | 0.00 | 0.00 | 0.00 | 44 | 1010.8 |
| 20260504213035 | 10 | 88 | 12.9 | 17.7 | 0.00 | 0.00 | 0.00 | 44 | 1010.7 |
| 20260504211520 | 10 | 54 | 8.0 | 24.1 | 0.00 | 0.00 | 0.00 | 50 | 1010.7 |
| 20260504210018 | 10 | 52 | 8.0 | 20.9 | 0.00 | 0.00 | 0.00 | 47 | 1010.7 |
| 20260504204516 | 10 | 54 | 8.0 | 22.5 | 0.00 | 0.00 | 0.00 | 49 | 1010.8 |
| 20260504203016 | 10 | 37 | 11.3 | 22.5 | 0.00 | 0.00 | 0.00 | 48 | 1010.7 |
| 20260504201515 | 9 | 23 | 8.0 | 16.1 | 0.00 | 0.00 | 0.00 | 49 | 1010.8 |
| 20260504200015 | 8 | 40 | 9.7 | 17.7 | 0.00 | 0.00 | 0.00 | 49 | 1010.8 |
| 20260504194518 | 8 | 56 | 14.5 | 25.7 | 0.00 | 0.00 | 0.00 | 50 | 1010.7 |
| 20260504193016 | 9 | 47 | 14.5 | 19.3 | 0.00 | 0.00 | 0.00 | 50 | 1010.8 |
| 20260504191510 | 8 | 40 | 12.9 | 24.1 | 0.00 | 0.00 | 0.00 | 53 | 1010.9 |
| 20260504190014 | 8 | 34 | 12.9 | 22.5 | 0.00 | 0.00 | 0.00 | 51 | 1010.7 |
| 20260504184526 | 8 | 68 | 9.7 | 22.5 | 0.00 | 0.00 | 0.00 | 52 | 1010.8 |
| 20260504183007 | 9 | 31 | 12.9 | 22.5 | 0.00 | 0.00 | 0.00 | 50 | 1010.9 |
| 20260504181507 | 9 | 26 | 11.3 | 24.1 | 0.00 | 0.00 | 0.00 | 49 | 1011.0 |
| 20260504180005 | 9 | 7 | 12.9 | 19.3 | 0.00 | 0.00 | 0.00 | 49 | 1010.9 |
| 20260504174504 | 9 | 23 | 8.0 | 24.1 | 0.00 | 0.00 | 0.00 | 50 | 1011.0 |
| 20260504173009 | 8 | 52 | 9.7 | 20.9 | 0.00 | 0.00 | 0.00 | 49 | 1011.1 |
| 20260504171501 | 8 | 30 | 8.0 | 24.1 | 0.00 | 0.00 | 0.00 | 49 | 1011.1 |
| 20260504081512 | 4 | 176 | 4.8 | 9.7 | 0.00 | 0.00 | 0.00 | 65 | 1009.3 |
| 20260504044549 | 6 | 67 | 1.6 | 6.4 | 0.00 | 0.00 | 0.00 | 58 | 1007.8 |
| 20260504043050 | 7 | 91 | 0.0 | 6.4 | 0.00 | 0.00 | 0.00 | 56 | 1007.7 |
| 20260504041547 | 7 | 73 | 0.0 | 6.4 | 0.00 | 0.00 | 0.00 | 55 | 1007.6 |
| 20260504040047 | 7 | 64 | 4.8 | 6.4 | 0.00 | 0.00 | 0.00 | 56 | 1007.5 |
| 20260504034554 | 8 | 96 | 0.0 | 3.2 | 0.00 | 0.00 | 0.00 | 53 | 1007.4 |
| 20260504033055 | 9 | 96 | 1.6 | 3.2 | 0.00 | 0.00 | 0.00 | 51 | 1007.1 |
| 20260504031600 | 10 | 103 | 1.6 | 3.2 | 0.00 | 0.00 | 0.00 | 46 | 1007.0 |
| 20260504030108 | 11 | 36 | 1.6 | 6.4 | 0.00 | 0.00 | 0.00 | 41 | 1006.7 |
| 20260504024549 | 12 | 248 | 1.6 | 8.0 | 0.00 | 0.00 | 0.00 | 40 | 1006.5 |
| 20260504023044 | 15 | 241 | 6.4 | 14.5 | 0.00 | 0.00 | 0.00 | 33 | 1006.3 |
| 20260504021545 | 16 | 249 | 9.7 | 19.3 | 0.00 | 0.00 | 0.00 | 30 | 1006.3 |
| 20260504020046 | 17 | 253 | 8.0 | 17.7 | 0.00 | 0.00 | 0.00 | 31 | 1006.3 |
| 20260504014542 | 17 | 251 | 12.9 | 19.3 | 0.00 | 0.00 | 0.00 | 29 | 1006.3 |
| 20260504013041 | 17 | 293 | 17.7 | 29.0 | 0.00 | 0.00 | 0.00 | 27 | 1006.2 |
| 20260504011540 | 18 | 269 | 17.7 | 24.1 | 0.00 | 0.00 | 0.00 | 27 | 1006.4 |
| 20260504010042 | 18 | 273 | 19.3 | 27.4 | 0.00 | 0.00 | 0.00 | 28 | 1006.5 |
| 20260504004539 | 18 | 265 | 19.3 | 33.8 | 0.00 | 0.00 | 0.00 | 29 | 1006.6 |
| 20260504003042 | 18 | 248 | 14.5 | 22.5 | 0.00 | 0.00 | 0.00 | 27 | 1006.5 |
| 20260504001536 | 18 | 297 | 12.9 | 27.4 | 0.00 | 0.00 | 0.00 | 27 | 1006.6 |
| 20260504000139 | 18 | 255 | 16.1 | 30.6 | 0.00 | 0.00 | 0.00 | 27 | 1006.6 |
| 20260503234534 | 19 | 251 | 16.1 | 27.4 | 0.00 | 0.00 | 0.00 | 28 | 1006.8 |
| 20260503233038 | 19 | 256 | 14.5 | 29.0 | 0.00 | 0.00 | 0.00 | 28 | 1006.9 |
| 20260503231531 | 19 | 267 | 19.3 | 24.1 | 0.00 | 0.00 | 0.00 | 24 | 1007.0 |
| 20260503230029 | 19 | 255 | 16.1 | 32.2 | 0.00 | 0.00 | 0.00 | 23 | 1007.2 |
| 20260503224529 | 19 | 242 | 22.5 | 30.6 | 0.00 | 0.00 | 0.00 | 24 | 1007.1 |
| 20260503223022 | 19 | 259 | 8.0 | 25.7 | 0.00 | 0.00 | 0.00 | 25 | 1007.4 |
| 20260503221520 | 19 | 260 | 19.3 | 25.7 | 0.00 | 0.00 | 0.00 | 28 | 1007.6 |